Regional Weather Roundup
Issued by NWS State College, PA

Home | Current Version | Previous Version | Text Only | Print | Product List | Glossary On
Versions: 1 2 3 4 5 6 7 8 9 10 11 12 13 14 15 16 17 18 19 20 21 22 23 24 25 26 27 28 29 30 31 32 33 34 35 36 37 38 39 40 41 42 43 44 45 46 47 48 49 50
000
ASUS41 KCTP 010910
RWRCTP

REGIONAL WEATHER ROUNDUP
NATIONAL WEATHER SERVICE STATE COLLEGE PA
500 AM EDT TUE SEP 01 2015

Note: "fair" indicates few or no clouds below 12,000 feet with no
significant weather and/or obstructions to visibility.

* = STATION THAT DOES NOT REPORT PRECIPITATION /E.G. RAIN...SNOW...ETC/
    THUNDER OR FOG.

PAZ002>004-007>009-013>016-020>023-029>032-011000-
WESTERN PENNSYLVANIA

CITY           SKY/WX    TMP DP  RH WIND       PRES   REMARKS
ERIE           CLEAR     66  61  84 S6        30.08S
MEADVILLE      CLEAR     67  63  87 SW5       30.12S FOG
FRANKLIN*      CLEAR     61  61 100 CALM      30.14R
NEW CASTLE     FOG       64  64 100 CALM      30.11S VSB<1/4
BEAVER COUNTY  NOT AVBL
BUTLER*        CLEAR     64  64 100 CALM      30.12F
PITTSBURGH INT CLEAR     68  64  87 CALM      30.11R
PITTSBURGH     CLEAR     69  63  81 CALM      30.10S
INDIANA*       MOCLDY    64  63  94 CALM      30.15S
LATROBE        NOT AVBL
WASHINGTON CO*   N/A     61  61 100 CALM      30.12S VSB 3/4
$$

PAZ004>006-010>012-017>019-024>028-033>037-041-042-045-046-049>053-011000-
CENTRAL PENNSYLVANIA

CITY           SKY/WX    TMP DP  RH WIND       PRES   REMARKS
BRADFORD       FOG       52  51  97 CALM      30.14R VSB 3/4
DUBOIS         FOG       65  62  90 CALM      30.12S VSB 1/4
CLEARFIELD     FOG       63  62  97 SW3       30.12S VSB 1/4
JOHNSTOWN      CLEAR     66  62  87 W5        30.15S
ALTOONA        CLEAR     63  61  93 CALM      30.12S FOG
STATE COLLEGE  PTCLDY    65  64  96 CALM      30.10S FOG
WILLIAMSPORT   CLOUDY    68  66  93 NW3       30.05S FOG
SELINSGROVE    PTCLDY    64  62  93 CALM      30.06S FOG
FT INDIANTOWN  FOG       64  64 100 N1        30.04R VSB 1/2
CAPITAL CITY   CLEAR     72  65  78 W5        30.04S
HARRISBURG     CLEAR     71  66  84 NW6       30.03S
YORK           FOG       63  62  97 CALM      30.05S VSB 1/4
$$

PAZ038>040-043-044-047-048-054-055-060>062-067>071-011000-
EASTERN PENNSYLVANIA

CITY           SKY/WX    TMP DP  RH WIND       PRES   REMARKS
SCRANTON       CLEAR     66  63  90 SE5       30.06S
MOUNT POCONO   CLEAR     61  59  93 CALM      30.10S FOG
ALLENTOWN      CLEAR     68  65  90 CALM      30.03F FOG
QUAKERTOWN*    SUNNY     66  64  94 CALM      30.04F
READING        CLEAR     71  66  84 CALM      30.03S
LANCASTER      CLEAR     67  65  93 CALM      30.04S FOG
COATESVILLE    SUNNY     66  66 100 NW5       30.05S FOG
POTTSTOWN      CLEAR     67  67 100 CALM      30.04F
BLUE BELL      CLEAR     66  64  94 CALM      30.02F
DOYLESTOWN     CLEAR     69  67  93 CALM      30.02S
WILLOW GROVE   NOT AVBL
NORTH PHILA    CLEAR     73  66  78 W3        30.03F
PHILADELPHIA   CLEAR     74  69  85 SW5       30.03S
$$



USA.gov is the U.S. government's official web portal to all federal, state and local government web resources and services.